Home   Weather   Tofol   Past weeks

Flag for Micronesia Past Weather in Tofol, Kosrae, Micronesia — Yesterday and Last 2 Weeks

76 °F

Passing clouds.

Feels Like: 75 °F
Forecast: 81 / 86 °F
Wind: 6 mph from Southeast

Location: Pohnpei

Current Time: Oct 22, 2016 at 2:05:25 AM

Latest Report: Oct 22, 2016 at 12:50 AM

Visibility: 15 mi

Pressure: 29.85 "Hg

Humidity: 96%

Dew Point: 74 °F

Location of TofolLocation

Past Weather in Tofol — Graph


Tofol Temperature Yesterday

Maximum temperature yesterday: 90 °F (at 10:51 AM)
Minimum temperature yesterday: 74 °F (at 3:52 AM)
Average temperature yesterday: 81 °F

High & Low Weather Summary for the Past Weeks

High92 °F (Oct 7, 12:50 PM)100% (Oct 12, 1:01 AM)29.98 "Hg (Oct 12, 1:01 AM)
Low74 °F (Oct 16, 1:50 AM)50% (Oct 8, 12:57 PM)29.70 "Hg (Oct 12, 3:53 AM)
Average81 °F87%29.83 "Hg
* Reported Oct 7 12:56 AM — Oct 22 12:50 AM, Tofol, Weather by CustomWeather, © 2016

Note: Actual official high and low records may vary slightly from our data, if they occured in-between our weather recording intervals... More about our weather records


Tofol Weather History for the Previous 24 Hours

Scroll right to see more
Time TempWeatherWind HumidityBarometerVisibility
12:50 AM
Sat, Oct 22
76 °FPassing clouds.6 mph96%29.85 "Hg15 mi
11:50 PM
Fri, Oct 21
76 °FPassing clouds.5 mph96%29.87 "Hg15 mi
10:50 PM77 °FPassing clouds.5 mph95%29.88 "Hg15 mi
9:50 PM77 °FPassing clouds.5 mph95%29.89 "Hg15 mi
8:50 PM77 °FMostly cloudy.6 mph96%29.88 "Hg15 mi
7:50 PM78 °FSprinkles. Mostly cloudy.5 mph96%29.87 "Hg15 mi
6:50 PM79 °FSprinkles. Mostly cloudy.3 mph96%29.85 "Hg14 mi
5:50 PM85 °FBroken clouds.5 mph77%29.83 "Hg15 mi
4:55 PM86 °FBroken clouds.6 mph77%29.82 "Hg15 mi
3:50 PM87 °FScattered clouds.8 mph69%29.80 "Hg15 mi
2:50 PM86 °FScattered clouds.7 mph73%29.80 "Hg15 mi
1:50 PM88 °FScattered clouds.3 mph69%29.81 "Hg15 mi
12:51 PM89 °FScattered clouds.5 mph70%29.83 "Hg15 mi
11:51 AM87 °FScattered clouds.6 mph68%29.85 "Hg15 mi
10:51 AM90 °FScattered clouds.9 mph69%29.87 "Hg15 mi
9:52 AM87 °FBroken clouds.7 mph67%29.88 "Hg15 mi
8:50 AM87 °FPartly sunny.6 mph73%29.89 "Hg15 mi
7:53 AM84 °FPartly sunny.5 mph80%29.88 "Hg15 mi
6:54 AM76 °FPartly sunny.5 mph94%29.87 "Hg15 mi
5:54 AM74 °FPassing clouds.6 mph93%29.85 "Hg15 mi
4:52 AM74 °FPassing clouds.6 mph96%29.83 "Hg15 mi
3:52 AM74 °FPassing clouds.6 mph94%29.83 "Hg15 mi
2:53 AM74 °FPartly cloudy.7 mph95%29.83 "Hg15 mi
Weather by CustomWeather, © 2016

See weather overviewHow to use our weather pages